Location: New Canada
(47.1017°N, 68.5042°W)
Time: 12:10:18
(UTC+00:00)

Envisat - Visible Passes

Search period start: 02 December 2022 00:00
Search period end: 12 December 2022 00:00
Orbit: 763 x 765 km, 98.2° (Epoch: 01 December)

Date Brightness Start Highest point End Pass type
(mag) Time Alt. Az. Time Alt. Az. Time Alt. Az.
02 Dec 5.3 08:19:59 10° NNE 08:21:20 18° NE 08:21:20 18° NE visible
02 Dec 4.4 09:59:18 10° N 10:01:30 21° NNW 10:01:30 21° NNW visible
02 Dec 5.9 21:18:51 10° SW 21:21:52 16° W 21:24:54 10° NW visible
03 Dec 4.5 09:21:54 10° N 09:23:54 24° N 09:23:54 24° N visible
04 Dec 5.0 08:44:51 10° NNE 08:46:19 19° NNE 08:46:19 19° NNE visible
04 Dec 4.7 10:24:56 10° NNW 10:26:29 15° NNW 10:26:29 15° NNW visible
05 Dec 5.7 08:08:12 10° NNE 08:08:43 13° NE 08:08:43 13° NE visible
05 Dec 4.6 09:47:11 10° N 09:48:54 20° NNW 09:48:54 20° NNW visible
06 Dec 4.9 09:09:53 10° N 09:11:19 19° N 09:11:19 19° N visible
06 Dec 5.0 10:51:10 10° NNW 10:51:29 11° NW 10:51:29 11° NW visible
07 Dec 5.4 08:32:57 10° NNE 08:33:45 15° NNE 08:33:45 15° NNE visible
07 Dec 4.8 10:12:40 10° N 10:13:55 15° NNW 10:13:55 15° NNW visible
07 Dec 6.1 21:33:24 10° WSW 21:35:09 12° W 21:36:54 10° WNW visible
08 Dec 4.9 09:35:05 10° N 09:36:21 17° N 09:36:21 17° N visible
09 Dec 5.2 08:57:54 10° NNE 08:58:48 15° NNE 08:58:48 15° NNE visible
09 Dec 5.0 10:38:31 10° NNW 10:38:58 11° NNW 10:38:58 11° NNW visible
10 Dec 5.7 08:21:05 10° NNE 08:21:14 11° NNE 08:21:14 11° NNE visible
10 Dec 4.9 10:00:28 10° N 10:01:25 15° NNW 10:01:25 15° NNW visible
10 Dec 5.9 21:20:09 10° WSW 21:23:01 15° W 21:25:54 10° NW visible
11 Dec 5.1 09:23:02 10° N 09:23:52 15° N 09:23:52 15° N visible
